Time,TemperatureF,DewpointF,PressureIn,WindDirection,WindDirectionDegrees,WindSpeedMPH,WindSpeedGustMPH,Humidity,HourlyPrecipIn,Conditions,Clouds,dailyrainin,SoftwareType,DateUTC
2014-07-12 00:03:00,66.2,65.6,29.91,ESE,112,0.0,-999.0,98,-99.99,,,0.00,Acu-Link.com,2014-07-12 07:03:00,
2014-07-12 00:18:00,66.0,65.4,29.91,ESE,112,0.0,-999.0,98,-99.99,,,0.00,Acu-Link.com,2014-07-12 07:18:00,
2014-07-12 00:33:00,65.5,64.9,29.92,ESE,112,0.0,-999.0,98,-99.99,,,0.00,Acu-Link.com,2014-07-12 07:33:00,
2014-07-12 00:48:00,65.5,64.9,29.92,ENE,67,0.0,-999.0,98,-99.99,,,0.00,Acu-Link.com,2014-07-12 07:48:00,
2014-07-12 01:03:00,64.8,64.2,29.92,East,90,0.0,-999.0,98,-99.99,,,0.00,Acu-Link.com,2014-07-12 08:03:00,
2014-07-12 01:18:00,64.9,64.4,29.92,East,90,0.0,-999.0,98,-99.99,,,0.00,Acu-Link.com,2014-07-12 08:18:00,
2014-07-12 01:34:00,64.6,64.0,29.92,NE,45,0.0,-999.0,98,-99.99,,,0.00,Acu-Link.com,2014-07-12 08:34:00,
2014-07-12 01:49:00,64.0,63.5,29.93,NE,45,0.0,-999.0,98,-99.99,,,0.00,Acu-Link.com,2014-07-12 08:49:00,
2014-07-12 02:04:00,64.0,15.5,29.93,East,90,0.0,-999.0,15,-99.99,,,0.00,Acu-Link.com,2014-07-12 09:04:00,
2014-07-12 02:19:00,63.3,63.0,29.93,West,270,0.0,-999.0,99,-99.99,,,0.00,Acu-Link.com,2014-07-12 09:19:00,
2014-07-12 02:34:00,63.7,63.4,29.93,East,90,0.0,-999.0,99,-99.99,,,0.00,Acu-Link.com,2014-07-12 09:34:00,
2014-07-12 02:50:00,63.5,63.2,29.93,East,90,0.0,-999.0,99,-99.99,,,0.00,Acu-Link.com,2014-07-12 09:50:00,
2014-07-12 03:05:00,63.1,62.9,29.93,East,90,0.0,-999.0,99,-99.99,,,0.00,Acu-Link.com,2014-07-12 10:05:00,
2014-07-12 03:20:00,63.0,62.7,29.93,NW,315,0.0,-999.0,99,-99.99,,,0.00,Acu-Link.com,2014-07-12 10:20:00,
2014-07-12 03:35:00,62.6,62.3,29.94,ESE,112,0.0,-999.0,99,-99.99,,,0.00,Acu-Link.com,2014-07-12 10:35:00,
2014-07-12 03:50:00,62.1,61.8,29.94,ESE,112,0.0,-999.0,99,-99.99,,,0.00,Acu-Link.com,2014-07-12 10:50:00,
2014-07-12 04:05:00,62.1,61.8,29.94,East,90,0.0,-999.0,99,-99.99,,,0.00,Acu-Link.com,2014-07-12 11:05:00,
2014-07-12 04:20:00,61.3,61.1,29.95,East,90,0.0,-999.0,99,-99.99,,,0.00,Acu-Link.com,2014-07-12 11:20:00,
2014-07-12 04:35:00,61.0,-10.4,29.95,East,90,0.0,-999.0,5,-99.99,,,0.00,Acu-Link.com,2014-07-12 11:35:00,
2014-07-12 04:51:00,61.3,29.6,29.95,East,90,0.0,-999.0,30,-99.99,,,0.00,Acu-Link.com,2014-07-12 11:51:00,
2014-07-12 05:06:00,60.8,41.0,29.96,East,90,0.0,-999.0,48,-99.99,,,0.00,Acu-Link.com,2014-07-12 12:06:00,
2014-07-12 05:21:00,61.0,60.4,29.96,East,90,0.0,-999.0,98,-99.99,,,0.00,Acu-Link.com,2014-07-12 12:21:00,
2014-07-12 05:36:00,61.0,60.1,29.96,East,90,0.0,-999.0,97,-99.99,,,0.00,Acu-Link.com,2014-07-12 12:36:00,
2014-07-12 05:51:00,61.3,60.8,29.96,East,90,0.0,-999.0,98,-99.99,,,0.00,Acu-Link.com,2014-07-12 12:51:00,
2014-07-12 06:06:00,61.3,60.8,29.97,East,90,0.0,-999.0,98,-99.99,,,0.00,Acu-Link.com,2014-07-12 13:06:00,
2014-07-12 06:22:00,61.3,60.8,29.97,East,90,0.0,-999.0,98,-99.99,,,0.00,Acu-Link.com,2014-07-12 13:22:00,
2014-07-12 06:37:00,61.5,60.9,29.97,East,90,0.0,-999.0,98,-99.99,,,0.00,Acu-Link.com,2014-07-12 13:37:00,
2014-07-12 06:52:00,62.6,62.0,29.97,South,180,0.0,-999.0,98,-99.99,,,0.00,Acu-Link.com,2014-07-12 13:52:00,
2014-07-12 07:07:00,64.8,47.2,29.98,South,180,0.0,-999.0,53,-99.99,,,0.00,Acu-Link.com,2014-07-12 14:07:00,
2014-07-12 07:22:00,65.5,65.2,29.98,South,180,0.0,-999.0,99,-99.99,,,0.00,Acu-Link.com,2014-07-12 14:22:00,
2014-07-12 07:37:00,66.4,66.1,29.98,WSW,247,1.6,-999.0,99,-99.99,,,0.00,Acu-Link.com,2014-07-12 14:37:00,
2014-07-12 07:52:00,68.5,68.2,29.99,ESE,112,0.0,-999.0,99,-99.99,,,0.00,Acu-Link.com,2014-07-12 14:52:00,
2014-07-12 08:07:00,71.8,71.2,29.99,South,180,1.1,-999.0,98,-99.99,,,0.00,Acu-Link.com,2014-07-12 15:07:00,
2014-07-12 08:22:00,77.2,76.6,29.99,West,270,0.0,-999.0,98,-99.99,,,0.00,Acu-Link.com,2014-07-12 15:22:00,
2014-07-12 08:38:00,80.1,79.4,29.99,West,270,1.6,-999.0,98,-99.99,,,0.00,Acu-Link.com,2014-07-12 15:38:00,
2014-07-12 08:53:00,76.3,75.7,29.99,ESE,112,0.0,-999.0,98,-99.99,,,0.00,Acu-Link.com,2014-07-12 15:53:00,
2014-07-12 09:08:00,78.6,78.0,30.00,SW,225,0.0,-999.0,98,-99.99,,,0.00,Acu-Link.com,2014-07-12 16:08:00,
2014-07-12 09:23:00,79.3,78.7,29.99,NNE,22,0.0,-999.0,98,-99.99,,,0.00,Acu-Link.com,2014-07-12 16:23:00,
2014-07-12 09:38:00,80.2,79.6,29.99,East,90,0.0,-999.0,98,-99.99,,,0.00,Acu-Link.com,2014-07-12 16:38:00,
2014-07-12 09:53:00,81.9,81.2,30.00,WNW,292,0.0,-999.0,98,-99.99,,,0.00,Acu-Link.com,2014-07-12 16:53:00,
2014-07-12 10:09:00,82.0,81.4,30.00,ENE,67,1.1,-999.0,98,-99.99,,,0.00,Acu-Link.com,2014-07-12 17:09:00,
2014-07-12 10:24:00,83.5,82.9,30.00,East,90,0.0,-999.0,98,-99.99,,,0.00,Acu-Link.com,2014-07-12 17:24:00,
2014-07-12 10:39:00,83.5,82.9,30.00,SW,225,0.0,-999.0,98,-99.99,,,0.00,Acu-Link.com,2014-07-12 17:39:00,